[[{"header":{"parameterUnit":"m.s-1","parameterCategory":1,"la1":30.2991,"la2":30.254,"lo1":-89.0895,"lo2":-89.0444,"dy":0.0017,"dx":0.0017,"nx":28,"ny":28,"refTime":"2023-07-21T21:00:00:Z","depth":0,"parameterNumber":2,"parameterNumberName":"U-component_of_WINDS"},"data":[0,0,0,0,0,0,0,0,0,0,0,0,0,0,0,0,0,0,0,0,0,0,0,0,0,0,0,0,0,0,0,0,0,0,0,0,0,0,0,0,0,0,0,0,0,0,0,0,0,0,0,0,0,0,0,0,0,0,6.3239,6.3238,0,6.3094,6.3092,6.3091,6.281,6.2804,6.2799,6.2793,6.265,6.2651,6.2653,0,0,0,0,0,0,0,0,0,0,0,0,0,6.3285,6.3286,6.324,6.3238,6.3236,6.3094,6.3092,6.309,6.2811,6.2804,6.2797,6.2791,6.265,6.2651,6.2653,0,0,0,0,0,0,0,0,0,0,0,0,0,6.3216,6.3286,6.324,6.3079,6.3063,6.3095,6.3092,6.309,6.2812,6.2804,6.2796,6.2788,6.2649,6.2651,6.2653,6.2831,0,0,6.2659,6.266,0,0,0,0,0,0,0,0,6.322,6.3214,6.3105,6.309,6.3073,6.2961,6.3055,6.3003,6.2814,6.2908,6.2793,6.2784,6.2761,6.2753,6.2744,6.2824,6.2818,6.2659,6.266,6.2661,6.2662,0,0,0,0,0,0,0,6.3225,6.3219,6.3182,6.3104,6.3084,6.3018,6.2999,6.3044,6.2883,6.2899,6.2878,6.2865,6.275,6.2743,6.2739,6.2816,6.2659,6.2661,6.2662,6.2663,6.3043,6.3052,0,0,0,0,0,0,6.3252,6.3225,6.3187,6.3178,6.3127,6.3024,6.3002,6.3006,6.2881,6.2854,6.2872,6.2852,6.2743,6.2737,6.2733,6.2937,6.2661,6.2663,6.2664,6.3034,6.3045,6.3055,0,0,0,0,0,0,6.3254,6.3252,6.3192,6.3196,6.3183,6.3032,6.3038,6.3007,6.2999,6.2861,6.2831,6.2893,6.2737,6.273,6.281,6.2928,6.2664,6.2666,6.3024,6.3038,6.305,6.3346,0,0,0,0,0,0,6.3257,6.3254,6.3317,6.3199,6.3184,6.327,6.3045,6.301,6.3002,6.2975,6.2873,6.2848,6.273,6.2809,6.2812,6.2926,6.2667,6.3012,6.303,6.3046,6.3325,6.3368,6.3404,0,0,0,0,0,6.3259,6.3405,6.3321,6.3318,6.3259,6.3277,6.3269,6.3128,6.3013,6.3077,6.299,6.2851,6.2915,6.2819,6.282,6.2937,6.3004,6.3025,6.3044,6.3307,6.3359,6.3403,0,0,0,0,0,0,6.354,6.3387,6.3292,6.3403,6.3356,6.323,6.3305,6.3187,6.3171,6.3147,6.2975,6.2954,6.3059,6.3005,6.2901,6.3107,6.2938,6.296,6.3138,6.3186,6.3225,6.3236,6.2669,0,0,0,0,0,6.3616,6.3641,6.3506,6.3618,6.3599,6.3458,6.346,6.3357,6.3301,6.3279,6.3197,6.315,6.316,6.317,6.317,6.3316,6.3293,6.3398,6.3438,6.3471,6.3492,6.3572,6.3619,6.312,6.312,6.312,0,0,6.3771,6.369,6.3716,6.3672,6.3623,6.3657,6.3442,6.3485,6.351,6.3286,6.3357,6.3297,6.3234,6.335,6.3396,6.3308,6.3625,6.3497,6.3525,6.3527,6.3597,6.3645,6.3687,6.3134,6.3132,6.3129,0,0,6.4071,6.401,6.41,6.4056,6.3985,6.3891,6.3914,6.3808,6.3759,6.3828,6.3663,6.3692,6.371,6.3674,6.3659,6.3956,6.383,6.3961,6.4169,6.4249,6.4288,6.4322,6.4432,6.4473,6.3982,6.3983,6.3983,0,6.4273,6.4314,6.4161,6.4217,6.4205,6.4006,6.4098,6.4064,6.3998,6.3997,6.3899,6.3923,6.3866,6.3974,6.4048,6.404,6.4064,6.3971,6.4294,6.4327,6.4356,6.446,6.4501,6.4,6.3998,6.3996,6.3994,0,6.4569,6.4601,6.4683,6.4625,6.4623,6.4697,6.456,6.4577,6.4476,6.4395,6.4472,6.4398,6.4384,6.4402,6.4302,6.4498,6.4446,6.4325,6.4152,6.4423,6.4518,6.4556,6.4023,6.4017,6.4013,6.4008,0,0,6.5037,6.4899,6.4932,6.4906,6.4817,6.4841,6.491,6.4895,6.4916,6.4879,6.4935,6.496,6.4849,6.4832,6.4728,6.4798,6.5045,6.4667,6.4663,6.4743,6.5262,6.5356,6.5404,6.4961,6.4968,6.4974,6.5269,0,6.532,6.5425,6.5294,6.543,6.5462,6.5277,6.5338,6.5293,6.5221,6.524,6.5161,6.5183,6.5032,6.5021,6.5083,6.5002,6.5147,6.4979,6.5016,6.5019,6.5038,6.5452,6.5549,6.583,6.5304,6.531,6.5314,0,6.5661,6.5643,6.5783,6.5692,6.57,6.5756,6.5737,6.5756,6.5704,6.5647,6.5633,6.551,6.5576,6.5409,6.55,6.5389,6.5397,6.5362,6.5369,6.5367,6.5184,6.5465,6.5916,6.596,6.537,6.5366,6.5362,0,6.5994,6.6005,6.6091,6.6075,6.5969,6.6015,6.5973,6.5912,6.5915,6.5899,6.59,6.5893,6.589,6.5889,6.577,6.5659,6.5879,6.57,6.5837,6.5841,6.5891,6.589,6.6353,6.5895,6.5895,6.5894,6.5893,0,6.6324,6.6418,6.624,6.6294,6.6397,6.6247,6.6354,6.6294,6.6243,6.6285,6.6126,6.6169,6.6008,6.6037,6.5945,6.6038,6.6037,6.5996,6.597,6.6011,6.6017,6.6014,6.5992,6.5905,6.5902,6.59,6.5898,0,6.6712,6.6596,6.668,6.6575,6.6551,6.6632,6.6544,6.6592,6.6512,6.6568,6.6573,6.6448,6.6474,6.6356,6.636,6.6298,6.644,6.638,6.6458,6.644,6.6584,6.6574,6.7063,6.7122,6.6626,6.6631,6.6635,0,6.693,6.6999,6.6904,6.692,6.6887,6.6916,6.6918,6.6777,6.6787,6.6737,6.6793,6.6806,6.6808,6.6859,6.6771,6.6776,6.6717,6.6889,6.6716,6.6757,6.6723,6.6721,6.673,6.6925,6.6931,6.6936,6.694,0,6.7332,6.7274,6.7282,6.7275,6.7283,6.727,6.7246,6.727,6.7117,6.7138,6.7162,6.7165,6.7172,6.7188,6.7176,6.7137,6.7017,6.6995,6.7027,6.707,6.7113,6.7095,6.6557,6.6984,6.698,6.6976,6.6974,6.6972,6.7644,6.7699,6.7642,6.7659,6.7627,6.7611,6.7652,6.758,6.7597,6.7591,6.7508,6.755,6.7503,6.7474,6.7448,6.7482,6.7401,6.7447,6.7459,6.7473,6.75,6.7108,6.7479,6.7478,6.7476,6.7475,6.7474,0,6.804,6.7996,6.8014,6.7987,6.8003,6.7887,6.7857,6.7879,6.7918,6.7883,6.7891,6.7923,6.794,6.7856,6.7863,6.7907,6.7852,6.7914,6.7909,6.7903,6.757,6.7542,6.7958,6.7958,6.7958,6.7958,6.7958,6.7958,6.8248,6.8336,6.8273,6.8346,6.8301,6.8341,6.8335,6.8321,6.8293,6.8336,6.8349,6.8294,6.8242,6.8245,6.8258,6.8233,6.8244,6.8326,6.8283,6.7973,6.7926,6.7881,6.7855,6.8329,6.833,6.8613,6.8616,6.8618]},{"header":{"parameterUnit":"m.s-1","parameterCategory":1,"la1":30.2991,"la2":30.254,"lo1":-89.0895,"lo2":-89.0444,"dy":0.0017,"dx":0.0017,"nx":28,"ny":28,"refTime":"2023-07-21T21:00:00:Z","depth":0,"parameterNumber":3,"parameterNumberName":"V-component_of_WINDS"},"data":[0,0,0,0,0,0,0,0,0,0,0,0,0,0,0,0,0,0,0,0,0,0,0,0,0,0,0,0,0,0,0,0,0,0,0,0,0,0,0,0,0,0,0,0,0,0,0,0,0,0,0,0,0,0,0,0,0,0,-2.8728,-2.8722,0,-2.8232,-2.8227,-2.8221,-2.8057,-2.8059,-2.8061,-2.8063,-2.755,-2.7535,-2.752,0,0,0,0,0,0,0,0,0,0,0,0,0,-2.9525,-2.9512,-2.8728,-2.8722,-2.8716,-2.8233,-2.8226,-2.822,-2.8056,-2.8059,-2.8061,-2.8064,-2.7555,-2.7537,-2.7518,0,0,0,0,0,0,0,0,0,0,0,0,0,-2.9119,-2.9507,-2.8729,-2.8576,-2.8558,-2.8235,-2.8226,-2.8218,-2.8056,-2.8059,-2.8062,-2.8065,-2.7561,-2.7539,-2.7516,-2.7307,0,0,-2.7444,-2.7434,0,0,0,0,0,0,0,0,-2.9143,-2.909,-2.8605,-2.8586,-2.8565,-2.821,-2.8319,-2.7912,-2.8055,-2.8246,-2.8063,-2.8067,-2.7767,-2.7727,-2.7626,-2.7283,-2.7261,-2.7442,-2.7428,-2.7418,-2.7411,0,0,0,0,0,0,0,-2.9171,-2.9111,-2.8532,-2.8598,-2.8573,-2.853,-2.8476,-2.8241,-2.7994,-2.823,-2.8217,-2.816,-2.7756,-2.765,-2.7613,-2.7254,-2.7443,-2.7422,-2.7407,-2.7398,-2.6707,-2.6703,0,0,0,0,0,0,-2.9226,-2.9135,-2.8548,-2.8517,-2.8868,-2.8513,-2.8452,-2.832,-2.7997,-2.795,-2.8158,-2.8155,-2.7688,-2.7641,-2.7595,-2.7323,-2.7418,-2.7396,-2.7382,-2.6711,-2.6706,-2.6701,0,0,0,0,0,0,-2.9244,-2.9175,-2.8567,-2.8822,-2.8742,-2.8496,-2.8349,-2.8309,-2.8202,-2.7943,-2.7897,-2.8095,-2.7689,-2.7628,-2.7378,-2.7303,-2.7385,-2.7364,-2.6716,-2.6709,-2.6703,-2.6783,0,0,0,0,0,0,-2.9267,-2.9182,-2.9103,-2.8822,-2.8729,-2.8362,-2.8344,-2.8297,-2.8162,-2.8153,-2.7871,-2.7827,-2.7686,-2.7414,-2.7355,-2.7272,-2.7346,-2.6722,-2.6713,-2.6706,-2.6786,-2.678,-2.6775,0,0,0,0,0,-2.9296,-2.9146,-2.91,-2.903,-2.8624,-2.8359,-2.8305,-2.8147,-2.8158,-2.8073,-2.7906,-2.7836,-2.7323,-2.739,-2.7322,-2.7231,-2.6726,-2.6716,-2.6706,-2.6788,-2.6781,-2.6775,0,0,0,0,0,0,-2.9424,-2.9106,-2.9052,-2.8806,-2.8611,-2.8332,-2.8221,-2.8146,-2.7942,-2.7942,-2.7753,-2.7691,-2.7455,-2.7319,-2.74,-2.7009,-2.702,-2.6996,-2.7106,-2.7097,-2.7092,-2.7126,-2.7326,0,0,0,0,0,-2.9424,-2.9236,-2.8968,-2.8777,-2.8682,-2.8469,-2.8347,-2.8242,-2.8032,-2.7948,-2.7762,-2.7559,-2.735,-2.7217,-2.7012,-2.6767,-2.6699,-2.667,-2.6665,-2.6662,-2.6642,-2.6495,-2.6477,-2.6669,-2.6669,-2.667,0,0,-2.9421,-2.9224,-2.9117,-2.8798,-2.8634,-2.844,-2.84,-2.8199,-2.8052,-2.7916,-2.7668,-2.7526,-2.7285,-2.7036,-2.6917,-2.6915,-2.6574,-2.665,-2.6649,-2.663,-2.6483,-2.6465,-2.6449,-2.6663,-2.6664,-2.6665,0,0,-2.9315,-2.915,-2.8969,-2.8805,-2.8558,-2.8416,-2.8374,-2.8104,-2.8003,-2.7752,-2.7645,-2.7467,-2.7115,-2.6945,-2.6813,-2.664,-2.6566,-2.6579,-2.6548,-2.6407,-2.6392,-2.6377,-2.6308,-2.6287,-2.6561,-2.6561,-2.6561,0,-2.9341,-2.9047,-2.8886,-2.8687,-2.8547,-2.8417,-2.8229,-2.8078,-2.7776,-2.7681,-2.7685,-2.7235,-2.7065,-2.677,-2.6728,-2.6628,-2.6568,-2.6607,-2.6408,-2.6391,-2.6375,-2.6307,-2.6283,-2.6564,-2.6563,-2.6563,-2.6563,0,-2.9089,-2.8887,-2.877,-2.848,-2.8328,-2.8137,-2.7942,-2.7807,-2.7716,-2.7573,-2.7315,-2.7107,-2.6853,-2.6777,-2.6687,-2.6467,-2.6473,-2.6446,-2.6451,-2.6362,-2.6295,-2.6268,-2.6568,-2.6567,-2.6566,-2.6565,0,0,-2.9048,-2.867,-2.8629,-2.8493,-2.8209,-2.8047,-2.7849,-2.7602,-2.7486,-2.7282,-2.7106,-2.6809,-2.678,-2.663,-2.6519,-2.6397,-2.6263,-2.6381,-2.6373,-2.636,-2.6001,-2.6019,-2.5992,-2.6215,-2.621,-2.6205,-2.6018,0,-2.8901,-2.854,-2.8386,-2.8094,-2.7901,-2.7773,-2.7599,-2.7404,-2.7265,-2.7079,-2.6925,-2.6714,-2.6696,-2.6603,-2.6477,-2.6307,-2.6187,-2.6319,-2.6043,-2.6036,-2.6101,-2.5958,-2.5977,-2.5811,-2.5992,-2.5987,-2.5984,0,-2.868,-2.8472,-2.8162,-2.7895,-2.7808,-2.7654,-2.7412,-2.7238,-2.7012,-2.6919,-2.6751,-2.6645,-2.6427,-2.6452,-2.6145,-2.6238,-2.6116,-2.6016,-2.6005,-2.5968,-2.6,-2.591,-2.5755,-2.5727,-2.5942,-2.5946,-2.5949,0,-2.8672,-2.8317,-2.8082,-2.7971,-2.7656,-2.7549,-2.7413,-2.7191,-2.705,-2.6839,-2.6744,-2.6511,-2.6381,-2.6201,-2.6033,-2.6069,-2.5739,-2.5753,-2.5651,-2.5654,-2.5582,-2.5588,-2.5398,-2.5517,-2.5517,-2.5518,-2.5518,0,-2.852,-2.8332,-2.8073,-2.7929,-2.7713,-2.7538,-2.7329,-2.7183,-2.6986,-2.6808,-2.6685,-2.652,-2.6312,-2.6119,-2.5987,-2.5748,-2.5693,-2.5607,-2.5573,-2.5614,-2.5624,-2.5527,-2.5531,-2.5511,-2.5512,-2.5513,-2.5515,0,-2.8473,-2.8293,-2.8028,-2.7751,-2.7676,-2.7529,-2.729,-2.7142,-2.6998,-2.6773,-2.6711,-2.6482,-2.6248,-2.6064,-2.5761,-2.5671,-2.5417,-2.5384,-2.5493,-2.5474,-2.538,-2.5388,-2.5116,-2.5068,-2.5226,-2.5225,-2.5224,0,-2.8385,-2.8237,-2.7943,-2.7815,-2.7679,-2.7475,-2.733,-2.7151,-2.7005,-2.6734,-2.6618,-2.6376,-2.6171,-2.5803,-2.5608,-2.5373,-2.5328,-2.5248,-2.5291,-2.5335,-2.5317,-2.5325,-2.5306,-2.5242,-2.5241,-2.524,-2.524,0,-2.8244,-2.8161,-2.7957,-2.772,-2.755,-2.7355,-2.7158,-2.706,-2.6844,-2.6685,-2.6444,-2.6286,-2.5974,-2.5732,-2.5476,-2.5332,-2.5247,-2.5229,-2.5191,-2.5228,-2.5294,-2.5249,-2.5471,-2.5234,-2.5235,-2.5235,-2.5235,-2.5236,-2.8168,-2.8028,-2.7797,-2.7573,-2.7405,-2.7222,-2.7067,-2.6902,-2.6699,-2.643,-2.6337,-2.6088,-2.586,-2.5507,-2.5362,-2.5161,-2.5155,-2.5104,-2.5089,-2.5077,-2.5077,-2.5333,-2.5115,-2.5115,-2.5115,-2.5115,-2.5115,0,-2.8015,-2.7859,-2.7655,-2.738,-2.7202,-2.7141,-2.6917,-2.6771,-2.6553,-2.6349,-2.615,-2.587,-2.5634,-2.542,-2.5173,-2.5053,-2.5007,-2.4993,-2.4997,-2.4963,-2.51,-2.5154,-2.5034,-2.5034,-2.5034,-2.5034,-2.5034,-2.5034,-2.7914,-2.7671,-2.756,-2.7231,-2.7076,-2.683,-2.6707,-2.6535,-2.637,-2.6063,-2.5866,-2.5729,-2.5518,-2.5254,-2.5033,-2.4976,-2.4887,-2.4882,-2.4814,-2.4945,-2.4955,-2.4965,-2.5013,-2.4866,-2.4866,-2.4692,-2.4691,-2.469]}]]